Home > Weather > Kenora > Past weeks

Flag for Canada Past Weather in Kenora, Ontario, Canada — Yesterday and Last 2 Weeks

Now
70 °F

More clouds than sun.


Feels Like: 70 °F
Forecast: 63 / 80 °F
Wind: 8 mph from Southeast

Location: Kenora

Current Time: Jul 23, 2016 at 12:01:13 PM

Latest Report: Jul 23, 2016 at 11:00 AM


Visibility: 15 mi

Pressure: 29.91 "Hg

Humidity: 69%

Dew Point: 59 °F

Location of KenoraLocation

Past Weather in Kenora — Graph

°F

Kenora Temperature Yesterday

Maximum temperature yesterday: 82 °F (at 4:00 PM)
Minimum temperature yesterday: 64 °F (at 6:00 AM)
Average temperature yesterday: 74 °F

High & Low Weather Summary for the Past Weeks

 TemperatureHumidityPressure
High88 °F (Jul 20, 5:00 PM)100% (Jul 9, 12:00 AM)30.20 "Hg (Jul 9, 12:00 AM)
Low50 °F (Jul 15, 5:00 AM)33% (Jul 15, 8:00 PM)29.26 "Hg (Jul 13, 3:00 AM)
Average68 °F74%29.86 "Hg
* Reported Jul 8 11:00 AM — Jul 23 11:00 AM, Kenora, Weather by CustomWeather, © 2016

Note: Actual official high and low records may vary slightly from our data, if they occured in-between our weather recording intervals... More about our weather records

Advertising

Kenora Weather History for the Previous 24 Hours

Scroll right to see more
 ConditionsComfort  
Time TempWeatherWind HumidityBarometerVisibility
11:00 AM
Sat, Jul 23
70 °FMore clouds than sun.8 mph69%29.91 "Hg15 mi
10:00 AM68 °FCloudy.7 mph69%29.94 "Hg15 mi
9:00 AM68 °FMostly cloudy.8 mph73%29.93 "Hg15 mi
8:00 AM66 °FMostly cloudy.9 mph68%29.94 "Hg15 mi
7:00 AM64 °FMore clouds than sun.7 mph73%29.97 "Hg15 mi
6:00 AM63 °FPartly sunny.8 mph73%29.98 "Hg15 mi
5:00 AM64 °FPassing clouds.8 mph68%29.99 "Hg15 mi
4:00 AM64 °FPassing clouds.7 mph78%30.01 "Hg15 mi
3:00 AM64 °FPassing clouds.2 mph78%30.02 "Hg15 mi
2:00 AM66 °FPassing clouds.3 mph68%30.01 "Hg15 mi
1:00 AM66 °FPassing clouds.3 mph68%30.01 "Hg15 mi
12:00 AM70 °FPassing clouds.5 mph64%30.03 "Hg15 mi
11:00 PM
Fri, Jul 22
72 °FPassing clouds.6 mph57%30.01 "Hg15 mi
10:00 PM73 °FPassing clouds.5 mph57%30.00 "Hg15 mi
9:00 PM75 °FPassing clouds.5 mph54%29.97 "Hg15 mi
8:00 PM77 °FPassing clouds.8 mph54%29.97 "Hg15 mi
7:00 PM79 °FPassing clouds.12 mph51%29.98 "Hg15 mi
6:00 PM81 °FScattered clouds.12 mph45%29.98 "Hg15 mi
5:00 PM82 °FScattered clouds.13 mph42%29.99 "Hg15 mi
4:00 PM82 °FScattered clouds.14 mph42%29.98 "Hg15 mi
3:00 PM81 °FPassing clouds.10 mph45%29.98 "Hg15 mi
2:00 PM81 °FPassing clouds.9 mph45%29.98 "Hg15 mi
1:00 PM81 °FPassing clouds.12 mph45%29.98 "Hg15 mi
12:00 PM79 °FPassing clouds.14 mph51%29.99 "Hg15 mi
Weather by CustomWeather, © 2016

See weather overviewHow to use our weather pages